Regional Weather Roundup
Issued by NWS New Orleans/Baton Rouge, LA

Home | Current Version | Previous Version | Text Only | Print | Product List | Glossary On
Versions: 1 2 3 4 5 6 7 8 9 10 11 12 13 14 15 16 17 18 19 20 21 22 23 24 25 26 27 28 29 30 31 32 33 34 35 36 37 38 39 40 41 42 43 44 45 46 47 48 49 50
461
ASUS44 KLIX 210310
RWRLIX
NEW ORLEANS REGIONAL WEATHER ROUNDUP
NATIONAL WEATHER SERVICE NEW ORLEANS LA
1000 PM CDT MON OCT 20 2014

NOTE: "FAIR" INDICATES FEW OR NO CLOUDS BELOW 12,000 FEET WITH NO
      SIGNIFICANT WEATHER AND/OR OBSTRUCTIONS TO VISIBILITY.
      SKY/WX - SKY CONDITION AND SIGNIFICANT WEATHER.
      TMP - AIR TEMPERATURE.     DP    - DEWPOINT TEMPERATURE.
      RH  - RELATIVE HUMIDITY.   PRES  - PRESSURE.
      HI  - HEAT INDEX.          WCI   - WIND CHILL INDEX.

*  THESE STATIONS ARE NOT NWS OR FAA STATIONS AND ARE NOT UNDER
   NWS QUALITY CONTROL.

LAZ038-040-048-061>063-065>067-069-210400-
SOUTHEAST LOUISIANA

CITY           SKY/WX    TMP DP  RH WIND       PRES   REMARKS
N.O. AUDUBON     N/A     67  58  73 MISG        N/A
N.O. INTL ARPT PTCLDY    66  55  67 N3        30.02R
N.O. LAKEFRONT CLEAR     74  57  55 NE8       30.03R
N.O. DOWNTOWN*   N/A     72  52  49 N3        30.03R
SLIDELL        CLEAR     57  53  86 CALM      30.02R
BATON ROUGE    CLEAR     58  55  90 CALM      30.03S
BOOTHVILLE     CLEAR     71  65  81 NE5       30.01S
BELLE CHASSE   PTCLDY    59  55  87 CALM      30.02R
BOGALUSA*        N/A     55  51  87 CALM      30.05R
NEW ROADS*       N/A     59  57  92 CALM      30.04R
GONZALES*        N/A     58  58 100 CALM      30.03R
HAMMOND*         N/A     57  54  88 CALM      30.05R
HOUMA*         CLEAR     60  56  87 CALM      30.02R
PORT FOURCHON* CLEAR     72  61  68 E7        30.05R

$$

MSZ070-080>082-210400-
SOUTHERN MISSISSIPPI

CITY           SKY/WX    TMP DP  RH WIND       PRES   REMARKS
MCCOMB         CLEAR     57  52  83 CALM      30.04R
GULFPORT       CLEAR     59  54  83 CALM      30.02R
BILOXI         CLEAR     64  54  71 CALM      30.02R
PASCAGOULA     CLEAR     51  50  96 CALM      30.02R

$$

COASTAL OBSERVATIONS
LAKE AND NEARSHORE STATIONS

STATION/POSITION TIME  TEMP    WIND        PRES    WAVE
                       AIR SEA DIR/SP/G            HT/PER
                 (UTC) (F)     (DEG/KT/KT) (MB)    (FT/S)

OFFSHORE STATIONS

STATION/POSITION TIME  TEMP    WIND        PRES    WAVE
                       AIR SEA DIR/SP/G            HT/PER
                 (UTC) (F)     (DEG/KT/KT) (MB)    (FT/S)
64 S DAUPHIN ISL 0250   75 79   20/ 10/ 12 1016.6    1/ 3

$$




USA.gov is the U.S. government's official web portal to all federal, state and local government web resources and services.